Content
SEND FEEDBACK

Daily
Averages
Monthly
Summary
United States of America

ROSE CITY, TEXAS


Home > North America > United States > Texas
Elevation: 20 feet     Latitude: 30 05N     Longitude: 094 06W

WEATHER
 
SELECT A DAY
Number of Records: 68,656;   Date Range: 3/9/11 - 7/24/14
 
SHARE

PRINT THIS DATA

[ ← Previous Day ]
WEATHER ALMANAC - JANUARY 24, 2013
[ Next Day → ]
[ °C ]   °F
Weather ElementAverageHighLow
Temperature62.3 °F71.6 °F (1:55 pm)55.4 °F (1:35 am)
Dewpoint57.1 °F60.8 °F (9:55 am)53.6 °F (1:35 am)
Humidity83.9 %94 % (1:35 am)60 % (2:55 pm)
Barometer30.23 in30.32 in (10:15 am)30.19 in (4:15 pm)
Wind Speed5.4 mph9.2 mph (1:55 pm)
Weather ElementAverage
Visibility8.7 mi
Wind DirectionSSE (153.4 °)

Weather ElementTotal
Precipitation---
Heating Degree Days1.5 (Base 65)
Growing Degree Days13.5 (Base 50)
Averaged from 32 records on January 24, 2013
WEATHER CONDITIONS BREAKOUT
WIND DIRECTION BREAKOUT
WEATHER BY HOUR - JANUARY 24, 2013
[ °C ]   °F
Local TimeTemperatureDewpointHumidityBarometerVisibilityWind DirectionWind SpeedGust SpeedPrecipitationEventsConditions
1:35 AM55.4 °F53.6 °F94 %30.26 in7.0 miCalmClear
3:15 AM55.4 °F53.6 °F94 %30.25 in4.0 miSouth (180°)4.6 mphClear
3:55 AM55.4 °F53.6 °F94 %30.25 in5.0 miSouth (190°)3.5 mphClear
6:35 AM57.2 °F53.6 °F88 %30.26 in4.0 miSouth (190°)3.5 mphClear
6:55 AM55.4 °F53.6 °F94 %30.26 in1.8 miCalmScattered Clouds
9:55 AM62.6 °F60.8 °F94 %30.31 in10.0 miCalmOvercast
10:15 AM64.4 °F60.8 °F88 %30.32 in10.0 miNorthOvercast
10:35 AM64.4 °F60.8 °F88 %30.31 in10.0 miSouth (180°)4.6 mphOvercast
10:55 AM64.4 °F60.8 °F88 %30.31 in10.0 miSouth (190°)4.6 mphOvercast
11:15 AM64.4 °F60.8 °F88 %30.31 in10.0 miSSW (200°)3.5 mphOvercast
1:55 PM71.6 °F59.0 °F64 %30.22 in10.0 miSouth (190°)9.2 mphOvercast
2:55 PM71.6 °F57.2 °F60 %30.20 in10.0 miSouth (180°)9.2 mphOvercast
3:35 PM69.8 °F57.2 °F64 %30.20 in10.0 miSouth (190°)9.2 mphOvercast
4:15 PM69.8 °F57.2 °F64 %30.19 in10.0 miSouth (170°)9.2 mphOvercast
5:15 PM68.0 °F57.2 °F68 %30.19 in10.0 miSouth (180°)8.1 mphMostly Cloudy
5:35 PM68.0 °F57.2 °F68 %30.20 in10.0 miSouth (180°)6.9 mphMostly Cloudy
5:55 PM66.2 °F57.2 °F73 %30.20 in10.0 miSouth (180°)8.1 mphMostly Cloudy
6:15 PM64.4 °F57.2 °F77 %30.20 in10.0 miSouth (170°)6.9 mphScattered Clouds
6:35 PM62.6 °F59.0 °F88 %30.20 in10.0 miSouth (170°)6.9 mphClear
6:55 PM62.6 °F59.0 °F88 %30.20 in10.0 miSouth (170°)5.8 mphClear
7:15 PM62.6 °F59.0 °F88 %30.20 in10.0 miSSE (160°)8.1 mphClear
7:35 PM60.8 °F59.0 °F94 %30.20 in10.0 miSouth (170°)8.1 mphClear
7:55 PM60.8 °F57.2 °F88 %30.20 in10.0 miSouth (170°)5.8 mphClear
8:15 PM60.8 °F57.2 °F88 %30.20 in10.0 miSouth (170°)4.6 mphClear
8:35 PM60.8 °F57.2 °F88 %30.20 in10.0 miSouth (170°)4.6 mphClear
8:55 PM59.0 °F55.4 °F88 %30.20 in10.0 miSSE (160°)4.6 mphClear
9:15 PM59.0 °F55.4 °F88 %30.20 in10.0 miSSE (160°)4.6 mphClear
9:35 PM59.0 °F55.4 °F88 %30.21 in10.0 miSouth (170°)4.6 mphClear
9:55 PM59.0 °F55.4 °F88 %30.20 in7.0 miSouth (170°)5.8 mphClear
10:15 PM59.0 °F55.4 °F88 %30.21 in7.0 miSouth (170°)4.6 mphClear
10:35 PM59.0 °F55.4 °F88 %30.20 in7.0 miSSE (160°)4.6 mphClear
11:15 PM59.0 °F55.4 °F88 %30.20 in7.0 miSouth (170°)3.5 mphClear
Hourly data recorded from KBMT, located miles away from Rose City, Texas







STORIES FROM OUR PARTNERS